This is the latest recevied weather packets stored in our database for station/object AI9F. If no packets are shown the sender has not sent any weather packets the latest 10 day(s).
| Time | Temp. | Humidity | Pressure | Rain* | Wind** | Luminosity | Snow |
|---|---|---|---|---|---|---|---|
| 1778103519 | 14.44° C | 61% | 1015.4 hPa | 0 mm | - | 112 W/m² | - |
| 1778103217 | 14.44° C | 61% | 1015.2 hPa | 0 mm | - | 81 W/m² | - |
| 1778102914 | 14.44° C | 60% | 1015.4 hPa | 0 mm | - | 73 W/m² | - |
| 1778102609 | 14.44° C | 62% | 1015.3 hPa | 0 mm | - | 63 W/m² | - |
| 1778102305 | 14.44° C | 60% | 1015.1 hPa | 0 mm | - | 66 W/m² | - |
| 1778102001 | 15° C | 55% | 1015.5 hPa | 0 mm | - | 78 W/m² | - |
| 1778101699 | 15° C | 57% | 1015.2 hPa | 0 mm | - | 101 W/m² | - |
| 1778101395 | 15.56° C | 53% | 1015.5 hPa | 0 mm | - | 122 W/m² | - |
| 1778101092 | 16.11° C | 53% | 1015.6 hPa | 0 mm | - | 171 W/m² | - |
| 1778100788 | 16.67° C | 53% | 1015.6 hPa | 0 mm | - | 218 W/m² | - |
| 1778100485 | 16.11° C | 52% | 1015.7 hPa | 0 mm | - | 757 W/m² | - |
| 1778100183 | 16.67° C | 46% | 1015.5 hPa | 0 mm | - | 304 W/m² | - |
| 1778099880 | 16.67° C | 51% | 1015.3 hPa | 0 mm | - | 666 W/m² | - |
| 1778099577 | 17.22° C | 50% | 1015.8 hPa | 0 mm | - | 688 W/m² | - |
| 1778099274 | 17.22° C | 54% | 1015.4 hPa | 0 mm | - | 723 W/m² | - |
| 1778098971 | 16.11° C | 53% | 1015.5 hPa | 0 mm | - | 644 W/m² | - |
| 1778098667 | 16.11° C | 53% | 1015.5 hPa | 0 mm | - | 842 W/m² | - |
| 1778098364 | 16.11° C | 53% | 1015.6 hPa | 0 mm | - | 552 W/m² | - |
| 1778098061 | 16.67° C | 51% | 1015.8 hPa | 0 mm | - | 564 W/m² | - |
| 1778097758 | 16.11° C | 51% | 1015.8 hPa | 0 mm | - | 513 W/m² | - |
| 1778097454 | 16.11° C | 49% | 1015.5 hPa | 0 mm | - | 695 W/m² | - |
| 1778097151 | 16.11° C | 55% | 1015.5 hPa | 0 mm | - | 763 W/m² | - |
| 1778096848 | 15.56° C | 50% | 1015.6 hPa | 0 mm | - | 760 W/m² | - |
| 1778096544 | 15.56° C | 54% | 1015.4 hPa | 0 mm | - | 545 W/m² | - |
| 1778096242 | 15.56° C | 58% | 1015.2 hPa | 0 mm | - | 601 W/m² | - |
* Rain latest hour (hover to see other rain measurements)
** Current wind speed in m/s (hover to see current wind gust speed)